Lid_Strength_Index
11 11 11 11 11 10 12 11 14 12 12 10 8 8 7 7 6 6 6 6 5 5 5 4 4 4 3 3 2 2 3 3 3 2 3 2 2 2 1 1 1 2 3 3
13 11 11 12 11 10 10 11 11 10 11 8 7 7 8 8 7 7 6 6 5 5 4 4 4 3 3 3 3 2 2 3 2 2 2 2 2 2 2 2 2 3 3 3
17 12 12 16 12 11 11 10 10 12 10 7 9 8 8 8 7 7 6 6 5 5 4 4 4 3 3 3 3 2 3 3 2 2 3 3 2 2 2 2 2 3 3 3
16 14 20 12 8 8 10 9 8 9 8 8 8 7 7 6 7 7 6 5 5 5 4 4 3 3 3 3 2 3 3 3 2 4 3 3 2 2 2 2 3 3 3 2
17 17 14 12 10 10 11 11 9 10 9 8 8 7 7 5 5 6 6 5 4 4 4 4 4 4 3 3 3 3 3 3 3 5 3 3 3 3 2 2 3 3 3 3
16 19 20 14 10 7 8 15 8 8 9 9 8 12 9 6 5 5 4 4 4 4 4 4 3 4 4 4 3 3 3 3 2 5 4 3 3 2 2 2 3 3 3 4
16 17 15 9 8 7 16 15 8 7 7 8 10 8 6 5 5 4 4 4 3 4 4 4 4 3 4 4 4 3 2 2 2 2 2 2 2 2 2 2 3 4 5 6
15 17 19 7 8 12 9 7 7 7 7 8 7 6 6 5 5 5 5 5 4 5 5 4 4 4 5 4 3 2 2 2 3 2 2 2 2 2 2 3 3 5 7 7
13 13 8 7 7 7 6 7 7 7 6 6 7 6 6 6 5 5 5 5 5 5 5 4 4 5 5 5 2 2 3 3 3 2 2 2 3 3 3 3 4 6 6 7
11 9 8 7 6 5 5 6 6 5 6 6 7 6 6 5 5 6 6 6 5 5 6 6 5 5 5 4 2 3 3 3 3 3 3 3 2 2 3 3 5 6 7 8
10 8 7 7 6 6 6 5 5 5 5 5 6 6 6 6 6 6 6 7 6 7 7 7 6 5 4 3 2 3 3 3 3 3 3 3 2 3 3 3 5 6 7 7
12 8 8 8 6 5 6 6 5 5 5 5 6 6 6 6 6 7 8 8 8 7 7 7 6 6 4 3 2 3 4 4 3 3 3 3 3 5 10 8 10 10 10 8
8 6 6 6 5 5 6 6 6 6 7 7 7 7 8 9 9 9 8 8 8 8 7 6 6 5 4 3 2 3 3 3 4 4 3 5 4 5 8 11 12 11 12 12
6 7 8 7 8 6 7 7 7 8 8 8 9 10 10 11 10 10 10 9 8 8 7 7 6 5 3 2 3 3 3 7 4 3 4 4 4 6 7 7 9 10 12 11
7 7 8 7 7 8 8 9 10 10 10 11 11 11 11 11 12 11 10 9 7 5 6 6 5 5 2 2 3 3 4 4 3 4 4 4 5 5 6 7 8 8 10 12
8 8 8 9 9 10 10 10 11 12 12 12 13 13 12 12 12 11 9 8 8 7 6 4 4 3 2 2 3 3 4 7 6 4 4 5 5 5 6 7 7 9 9 10
9 11 10 10 10 11 11 11 12 13 13 14 14 13 13 12 12 11 10 10 9 7 7 7 6 3 3 3 3 4 5 6 9 5 5 5 5 5 6 7 8 8 9 11
8 9 9 10 10 11 11 12 13 14 15 14 13 14 14 14 13 13 11 11 11 9 9 8 7 3 3 4 4 5 5 6 5 5 6 5 5 5 7 6 7 9 11 13
8 9 9 9 10 10 12 14 14 14 14 15 15 15 14 14 13 13 12 12 12 12 12 8 9 6 4 5 5 5 6 6 6 6 6 9 7 7 7 7 9 10 11 11
9 9 9 9 10 11 13 13 14 14 14 14 14 14 15 14 13 13 13 12 13 13 11 10 8 7 6 6 7 5 6 6 6 6 7 7 7 7 8 11 10 10 10 10
8 8 9 9 10 11 13 13 14 15 14 14 15 15 15 14 13 12 14 14 13 13 11 11 10 9 8 7 6 5 5 6 6 7 8 7 8 8 9 10 10 10 9 9
8 9 9 9 10 11 12 12 13 14 14 14 14 14 14 14 14 13 12 15 13 14 11 11 11 14 11 11 6 6 6 6 6 7 8 8 9 9 10 10 10 9 9 9
7 7 8 8 10 11 11 11 11 12 14 14 14 14 14 14 14 15 15 13 13 13 12 12 14 14 14 7 7 6 6 6 6 7 8 8 9 9 9 9 9 9 9 9
5 5 6 7 7 9 11 11 11 11 11 12 13 13 14 15 14 13 12 13 14 13 12 13 13 14 12 9 8 7 7 7 7 7 7 10 8 9 9 9 9 8 9 10
5 5 5 6 7 8 8 9 10 11 11 12 12 11 12 12 13 14 12 12 13 12 12 13 13 13 10 9 9 9 9 8 8 8 8 8 8 9 8 8 8 8 9 9
5 6 6 6 7 7 8 8 9 9 10 12 11 11 11 11 11 12 12 13 12 13 12 12 13 11 11 11 10 10 9 9 8 8 8 8 8 8 9 9 9 9 9 10
6 5 6 6 6 7 8 8 9 9 8 8 10 10 10 10 11 12 12 12 12 12 12 12 13 13 12 12 11 11 10 10 11 10 9 9 9 10 10 10 10 10 10 10